CDT,Max TemperatureF,Mean TemperatureF,Min TemperatureF,Max Dew PointF,MeanDew PointF,Min DewpointF,Max Humidity, Mean Humidity, Min Humidity, Max Sea Level PressureIn, Mean Sea Level PressureIn, Min Sea Level PressureIn, Max VisibilityMiles, Mean VisibilityMiles, Min VisibilityMiles, Max Wind SpeedMPH, Mean Wind SpeedMPH, Max Gust SpeedMPH,PrecipitationIn, CloudCover, Events, WindDirDegrees
2013-3-1,43,30,19,32,22,14,79,65,44,30.25,30.23,30.17,10,10,10,20,11,31,0.00,5,,304
2013-3-2,55,46,37,32,30,28,77,58,36,30.22,30.17,30.03,10,10,10,25,18,33,0.00,1,,297
2013-3-3,63,49,35,32,28,25,77,52,25,30.02,29.75,29.62,10,10,10,33,12,41,0.00,1,,270
2013-3-4,40,28,18,29,16,6,84,60,30,30.17,29.88,29.65,10,10,10,33,17,39,0.00,3,,337
2013-3-5,42,28,14,18,11,6,77,52,26,30.25,30.18,30.13,10,10,10,25,14,34,0.00,0,,264
2013-3-6,55,37,19,26,20,15,84,58,23,30.12,29.96,29.83,10,10,10,22,11,25,0.00,0,,179
2013-3-7,65,44,24,29,23,15,88,56,15,29.99,29.90,29.83,10,10,10,15,6,18,0.00,0,,169
2013-3-8,45,34,23,31,27,20,94,78,56,30.00,29.86,29.69,10,10,5,13,4,,0.00,2,,44
2013-3-9,37,31,26,31,26,16,94,81,56,30.01,29.75,29.61,10,7,1,33,14,39,0.00,6,Snow-Thunderstorm,353
2013-3-10,41,30,20,24,14,7,86,55,26,30.08,30.03,29.95,10,10,10,31,17,39,0.00,2,Snow,336
2013-3-11,46,35,24,32,24,19,92,65,43,30.10,29.95,29.88,10,10,4,24,12,33,0.00,4,Rain-Snow,321
2013-3-12,43,34,24,28,22,17,90,68,38,30.26,30.20,30.11,10,10,5,18,11,23,0.00,4,Snow,311
2013-3-13,64,46,27,32,27,24,93,54,22,30.21,30.17,30.13,10,10,7,25,12,37,0.00,1,,272
2013-3-14,71,56,41,31,25,14,61,35,13,30.27,30.18,30.10,10,10,10,24,13,31,0.00,0,,292
2013-3-15,72,56,41,27,23,15,55,31,12,30.09,29.93,29.85,10,10,10,30,11,37,0.00,1,,288
2013-3-16,51,40,30,33,29,24,90,63,41,30.01,29.92,29.81,10,10,10,29,9,38,0.00,1,,161
2013-3-17,59,42,24,35,22,6,96,63,14,29.83,29.65,29.48,10,8,1,44,14,53,0.00,3,Snow,239
2013-3-18,47,33,19,26,12,3,92,48,17,29.93,29.85,29.80,10,10,7,29,13,41,0.00,2,Snow,302
2013-3-19,45,32,18,24,14,4,86,56,18,30.29,30.07,29.91,10,10,7,26,10,36,0.00,3,Snow,347
2013-3-20,55,33,11,25,15,8,91,55,16,30.31,30.02,29.73,10,10,10,21,8,26,0.00,2,,205
2013-3-21,52,38,25,37,26,16,94,65,35,29.81,29.64,29.55,10,10,2,28,9,40,0.14,4,Rain-Snow,235
2013-3-22,43,34,24,30,21,8,93,69,27,29.87,29.80,29.75,10,9,1,20,12,24,0.00,4,Rain-Snow,319
2013-3-23,27,20,11,24,15,7,94,79,55,30.11,29.99,29.87,10,6,1,24,16,31,0.00,7,Snow,360
2013-3-24,27,16,6,18,10,2,84,70,46,30.15,30.07,30.02,10,10,1,28,11,32,0.00,5,Snow,318
2013-3-25,35,20,6,18,9,3,89,64,25,30.21,30.17,30.14,10,10,5,17,10,22,0.00,1,Snow,314
2013-3-26,52,33,14,36,18,9,93,60,22,30.16,30.02,29.92,10,10,5,15,8,29,0.02,3,Rain,226
2013-3-27,56,44,32,36,33,30,98,74,36,30.09,30.03,29.97,10,9,5,15,4,,0.00,6,Rain,229
2013-3-28,65,49,33,33,26,16,90,51,16,30.10,30.05,30.02,10,10,7,16,10,23,0.00,2,,284
2013-3-29,66,49,32,35,29,24,85,51,20,30.10,30.06,30.01,10,10,10,20,6,36,0.00,3,Rain,281
2013-3-30,58,45,32,35,32,28,90,62,36,30.17,30.09,30.05,10,10,10,21,11,26,0.00,2,Rain,320
2013-3-31,65,46,26,37,24,13,92,53,13,30.17,30.03,29.94,10,10,10,23,10,32,0.00,0,,294